TKJ40Q LTCV-LTAC

Flight info

Callsign TKJ40Q
Flight time 1h 27m
Altitude 38000
Route ABDIK T306 SRT G8 TAMER UL614 JUPNE UT54 AVCES L605 YUCEL
Aircraft B738/M-SDE2E3FGHIRWXY/LB1

Departure

Time 2026-04-25 22:36
Airport Şırnak Şerafettin Elçi Airport (LTCV)

Arrival

Time 2026-04-26 00:03
Airport Esenboğa International Airport (LTAC)
Time Latitude Longitude Altitude Speed Heading
2026-04-25 22:28 37.36163 42.05770 2057 ft 3 kts 78°
2026-04-25 22:28 37.36173 42.05818 2056 ft 4 kts 73°
2026-04-25 22:28 37.36177 42.05854 2055 ft 3 kts 73°
2026-04-25 22:29 37.36192 42.05876 2054 ft 3 kts 37°
2026-04-25 22:29 37.36212 42.05889 2053 ft 3 kts 26°
2026-04-25 22:29 37.36245 42.05910 2052 ft 8 kts 26°
2026-04-25 22:30 37.36363 42.05981 2050 ft 3 kts 25°
2026-04-25 22:30 37.36377 42.05995 2050 ft 1 kts 49°
2026-04-25 22:30 37.36383 42.06007 2050 ft 3 kts 64°
2026-04-25 22:30 37.36389 42.06030 2050 ft 3 kts 80°
2026-04-25 22:31 37.36383 42.06068 2050 ft 3 kts 115°
2026-04-25 22:31 37.36366 42.06111 2049 ft 7 kts 115°
2026-04-25 22:31 37.36338 42.06188 2049 ft 11 kts 115°
2026-04-25 22:31 37.36298 42.06291 2050 ft 14 kts 115°
2026-04-25 22:32 37.36248 42.06421 2051 ft 17 kts 115°
2026-04-25 22:32 37.36191 42.06570 2052 ft 20 kts 115°
2026-04-25 22:32 37.36126 42.06741 2053 ft 23 kts 115°
2026-04-25 22:32 37.36051 42.06938 2052 ft 27 kts 115°
2026-04-25 22:33 37.35970 42.07149 2048 ft 26 kts 115°
2026-04-25 22:33 37.35923 42.07239 2047 ft 6 kts 145°
2026-04-25 22:33 37.35897 42.07256 2047 ft 2 kts 156°
2026-04-25 22:33 37.35881 42.07265 2047 ft 3 kts 157°
2026-04-25 22:34 37.35865 42.07280 2047 ft 2 kts 126°
2026-04-25 22:34 37.35860 42.07299 2047 ft 2 kts 90°
2026-04-25 22:34 37.35871 42.07317 2048 ft 2 kts 33°
2026-04-25 22:34 37.35882 42.07323 2048 ft 2 kts 26°
2026-04-25 22:35 37.35899 42.07322 2048 ft 3 kts 324°
2026-04-25 22:35 37.35912 42.07299 2047 ft 0 kts 297°
2026-04-25 22:35 37.35915 42.07293 2047 ft 2 kts 297°
2026-04-25 22:35 37.35992 42.07090 2049 ft 60 kts 295°
2026-04-25 22:36 37.36271 42.06361 2050 ft 124 kts 295°
2026-04-25 22:36 37.36729 42.05164 2074 ft 173 kts 295°
2026-04-25 22:36 37.37264 42.03886 2858 ft 160 kts 299°
2026-04-25 22:36 37.37818 42.02638 3375 ft 172 kts 298°
2026-04-25 22:37 37.38385 42.01229 3762 ft 190 kts 295°
2026-04-25 22:37 37.38954 41.99665 4183 ft 205 kts 294°
2026-04-25 22:37 37.39592 41.97987 4615 ft 222 kts 295°
2026-04-25 22:37 37.40302 41.96198 5082 ft 237 kts 297°
2026-04-25 22:38 37.41304 41.94463 5519 ft 255 kts 317°
2026-04-25 22:38 37.42857 41.93299 5991 ft 270 kts 346°
2026-04-25 22:38 37.44763 41.93106 6532 ft 281 kts
2026-04-25 22:38 37.46726 41.93304 7213 ft 287 kts
2026-04-25 22:39 37.48729 41.93523 7944 ft 292 kts
2026-04-25 22:39 37.50787 41.93737 8693 ft 297 kts
2026-04-25 22:39 37.52843 41.93943 9435 ft 301 kts
2026-04-25 22:39 37.54930 41.94149 10143 ft 306 kts
2026-04-25 22:40 37.57088 41.94360 10717 ft 317 kts
2026-04-25 22:40 37.59333 41.94577 11199 ft 330 kts
2026-04-25 22:40 37.61664 41.94804 11640 ft 345 kts
2026-04-25 22:40 37.64099 41.95043 12179 ft 356 kts
2026-04-25 22:41 37.66580 41.95287 12914 ft 361 kts
2026-04-25 22:41 37.69115 41.95365 13712 ft 363 kts 354°
2026-04-25 22:41 37.71589 41.94931 14500 ft 364 kts 345°
2026-04-25 22:41 37.74058 41.94155 15279 ft 367 kts 342°
2026-04-25 22:42 37.76522 41.93247 16012 ft 372 kts 341°
2026-04-25 22:42 37.79033 41.92304 16773 ft 377 kts 341°
2026-04-25 22:42 37.81554 41.91388 17516 ft 380 kts 342°
2026-04-25 22:42 37.84117 41.90494 18206 ft 385 kts 343°
2026-04-25 22:43 37.86686 41.89535 18896 ft 388 kts 338°
2026-04-25 22:43 37.89141 41.88098 19578 ft 389 kts 326°
2026-04-25 22:43 37.91308 41.86105 20260 ft 389 kts 316°
2026-04-25 22:43 37.93153 41.83612 20953 ft 387 kts 304°
2026-04-25 22:44 37.94590 41.80739 21583 ft 386 kts 294°
2026-04-25 22:44 37.95585 41.77615 22156 ft 387 kts 286°
2026-04-25 22:44 37.96341 41.74324 22727 ft 389 kts 283°
2026-04-25 22:44 37.97059 41.71029 23313 ft 391 kts 284°
2026-04-25 22:45 37.97873 41.67745 23897 ft 393 kts 286°
2026-04-25 22:45 37.98759 41.64478 24402 ft 397 kts 287°
2026-04-25 22:45 37.99691 41.61148 24921 ft 400 kts 287°
2026-04-25 22:45 38.00613 41.57872 25488 ft 400 kts 286°
2026-04-25 22:46 38.01544 41.54543 25961 ft 403 kts 286°
2026-04-25 22:46 38.02490 41.51192 26436 ft 406 kts 287°
2026-04-25 22:46 38.03495 41.47850 26898 ft 409 kts 288°
2026-04-25 22:46 38.04541 41.44501 27336 ft 411 kts 288°
2026-04-25 22:47 38.05605 41.41129 27791 ft 413 kts 288°
2026-04-25 22:47 38.06680 41.37721 28214 ft 415 kts 287°
2026-04-25 22:47 38.07746 41.34324 28655 ft 417 kts 287°
2026-04-25 22:47 38.08821 41.30871 29032 ft 420 kts 286°
2026-04-25 22:48 38.09876 41.27461 29452 ft 422 kts 286°
2026-04-25 22:48 38.10950 41.23973 29883 ft 423 kts 286°
2026-04-25 22:48 38.12025 41.20474 30228 ft 426 kts 286°
2026-04-25 22:48 38.13088 41.17000 30588 ft 428 kts 285°
2026-04-25 22:49 38.14165 41.13475 30966 ft 429 kts 285°
2026-04-25 22:49 38.15246 41.09955 31409 ft 428 kts 285°
2026-04-25 22:49 38.16344 41.06431 31937 ft 425 kts 285°
2026-04-25 22:49 38.17429 41.02968 32442 ft 422 kts 285°
2026-04-25 22:50 38.18509 40.99525 32870 ft 421 kts 285°
2026-04-25 22:50 38.19595 40.96055 33256 ft 421 kts 285°
2026-04-25 22:50 38.20683 40.92566 33618 ft 421 kts 285°
2026-04-25 22:50 38.21749 40.89141 33965 ft 421 kts 284°
2026-04-25 22:51 38.22827 40.85672 34348 ft 419 kts 284°
2026-04-25 22:51 38.23893 40.82236 34668 ft 418 kts 284°
2026-04-25 22:51 38.24965 40.78754 34942 ft 418 kts 284°
2026-04-25 22:51 38.26004 40.75321 35194 ft 418 kts 284°
2026-04-25 22:52 38.27037 40.71869 35492 ft 417 kts 284°
2026-04-25 22:52 38.28064 40.68431 35774 ft 416 kts 284°
2026-04-25 22:52 38.29085 40.65006 35999 ft 417 kts 284°
2026-04-25 22:52 38.29769 40.62709 36154 ft 417 kts 284°
2026-04-25 22:53 38.31134 40.58126 36548 ft 416 kts 284°
2026-04-25 22:53 38.32155 40.54697 36839 ft 416 kts 284°
2026-04-25 22:53 38.33185 40.51233 37143 ft 416 kts 284°
2026-04-25 22:53 38.34198 40.47829 37391 ft 416 kts 285°
2026-04-25 22:54 38.35231 40.44354 37660 ft 416 kts 284°
2026-04-25 22:54 38.36239 40.40960 37899 ft 415 kts 285°
2026-04-25 22:54 38.37266 40.37501 38107 ft 415 kts 285°
2026-04-25 22:54 38.38271 40.34106 38102 ft 417 kts 284°
2026-04-25 22:55 38.40310 40.27211 38108 ft 414 kts 284°
2026-04-25 22:55 38.42337 40.20341 38102 ft 415 kts 284°
2026-04-25 22:56 38.44374 40.13409 38110 ft 419 kts 284°
2026-04-25 22:56 38.46420 40.06431 38111 ft 426 kts 285°
2026-04-25 22:57 38.48504 39.99311 38109 ft 428 kts 285°
2026-04-25 22:57 38.50581 39.92206 38113 ft 428 kts 285°
2026-04-25 22:58 38.52666 39.85051 38120 ft 428 kts 285°
2026-04-25 22:58 38.54726 39.77956 38122 ft 429 kts 285°
2026-04-25 22:59 38.56798 39.70804 38124 ft 429 kts 285°
2026-04-25 22:59 38.58858 39.63674 38124 ft 429 kts 285°
2026-04-25 23:00 38.60920 39.56516 38110 ft 430 kts 285°
2026-04-25 23:00 38.62971 39.49385 38110 ft 430 kts 286°
2026-04-25 23:01 38.65065 39.42199 38079 ft 430 kts 286°
2026-04-25 23:01 38.67165 39.35031 38084 ft 430 kts 286°
2026-04-25 23:02 38.69261 39.27846 38068 ft 430 kts 286°
2026-04-25 23:02 38.71102 39.20618 38087 ft 426 kts 280°
2026-04-25 23:03 38.72351 39.13165 38087 ft 427 kts 277°
2026-04-25 23:03 38.73419 39.05697 38093 ft 427 kts 276°
2026-04-25 23:04 38.74299 38.99484 38112 ft 426 kts 276°
2026-04-25 23:04 38.75550 38.90787 38121 ft 427 kts 277°
2026-04-25 23:05 38.76656 38.83294 38130 ft 429 kts 277°
2026-04-25 23:05 38.77781 38.75828 38129 ft 429 kts 277°
2026-04-25 23:06 38.78910 38.68326 38123 ft 429 kts 277°
2026-04-25 23:06 38.80035 38.60806 38124 ft 429 kts 277°
2026-04-25 23:07 38.81155 38.53270 38114 ft 429 kts 277°
2026-04-25 23:07 38.82261 38.45784 38119 ft 430 kts 277°
2026-04-25 23:08 38.83379 38.38181 38135 ft 431 kts 277°
2026-04-25 23:08 38.84484 38.30632 38140 ft 430 kts 277°
2026-04-25 23:09 38.85583 38.23089 38137 ft 431 kts 277°
2026-04-25 23:09 38.86677 38.15544 38157 ft 432 kts 277°
2026-04-25 23:10 38.87766 38.07988 38153 ft 433 kts 277°
2026-04-25 23:10 38.88862 38.00367 38147 ft 433 kts 277°
2026-04-25 23:11 38.89947 37.92770 38163 ft 434 kts 277°
2026-04-25 23:11 38.91034 37.85131 38165 ft 434 kts 277°
2026-04-25 23:12 38.92107 37.77554 38155 ft 434 kts 277°
2026-04-25 23:12 38.93183 37.69910 38163 ft 435 kts 277°
2026-04-25 23:13 38.94255 37.62261 38161 ft 434 kts 277°
2026-04-25 23:13 38.95319 37.54627 38153 ft 435 kts 277°
2026-04-25 23:14 38.96375 37.47017 38161 ft 434 kts 277°
2026-04-25 23:14 38.97430 37.39378 38155 ft 434 kts 277°
2026-04-25 23:15 38.98480 37.31726 38160 ft 434 kts 276°
2026-04-25 23:15 38.99525 37.24088 38151 ft 434 kts 276°
2026-04-25 23:16 39.00557 37.16503 38149 ft 434 kts 276°
2026-04-25 23:16 39.01593 37.08833 38146 ft 435 kts 276°
2026-04-25 23:17 39.02616 37.01243 38143 ft 434 kts 276°
2026-04-25 23:17 39.03645 36.93552 38145 ft 435 kts 276°
2026-04-25 23:18 39.04659 36.85943 38137 ft 435 kts 276°
2026-04-25 23:18 39.05675 36.78275 38143 ft 434 kts 276°
2026-04-25 23:19 39.06688 36.70587 38139 ft 435 kts 277°
2026-04-25 23:19 39.07688 36.62960 38142 ft 435 kts 277°
2026-04-25 23:20 39.08694 36.55252 38141 ft 436 kts 277°
2026-04-25 23:20 39.09687 36.47599 38118 ft 436 kts 277°
2026-04-25 23:21 39.10681 36.39897 38123 ft 436 kts 277°
2026-04-25 23:21 39.11669 36.32210 38120 ft 436 kts 276°
2026-04-25 23:22 39.12655 36.24492 38117 ft 435 kts 276°
2026-04-25 23:23 39.14115 36.12964 38110 ft 436 kts 276°
2026-04-25 23:23 39.15131 36.05244 38096 ft 437 kts 279°
2026-04-25 23:24 39.16779 35.97711 38092 ft 440 kts 286°
2026-04-25 23:24 39.18931 35.90334 38097 ft 441 kts 288°
2026-04-25 23:25 39.21188 35.82960 38104 ft 442 kts 288°
2026-04-25 23:25 39.23422 35.75592 38109 ft 441 kts 288°
2026-04-25 23:26 39.25628 35.68205 38103 ft 442 kts 288°
2026-04-25 23:26 39.27813 35.60805 38097 ft 443 kts 288°
2026-04-25 23:27 39.29982 35.53410 38088 ft 441 kts 288°
2026-04-25 23:27 39.32139 35.46025 38084 ft 443 kts 288°
2026-04-25 23:28 39.34310 35.38569 38073 ft 442 kts 288°
2026-04-25 23:28 39.36459 35.31164 38073 ft 443 kts 287°
2026-04-25 23:29 39.38640 35.23624 38077 ft 449 kts 288°
2026-04-25 23:29 39.40807 35.16127 38074 ft 447 kts 288°
2026-04-25 23:30 39.43016 35.08611 38068 ft 448 kts 288°
2026-04-25 23:30 39.45236 35.01109 38061 ft 448 kts 288°
2026-04-25 23:31 39.47462 34.93564 38049 ft 447 kts 288°
2026-04-25 23:31 39.49683 34.86003 38047 ft 447 kts 288°
2026-04-25 23:31 39.50777 34.82265 37841 ft 443 kts 288°
2026-04-25 23:32 39.51861 34.78560 37322 ft 440 kts 288°
2026-04-25 23:32 39.52938 34.74869 36792 ft 436 kts 288°
2026-04-25 23:32 39.53993 34.71248 36252 ft 433 kts 288°
2026-04-25 23:32 39.55062 34.67571 35495 ft 440 kts 289°
2026-04-25 23:33 39.56140 34.63850 34532 ft 450 kts 289°
2026-04-25 23:33 39.57237 34.60054 33567 ft 457 kts 289°
2026-04-25 23:33 39.58353 34.56193 32640 ft 461 kts 289°
2026-04-25 23:33 39.59483 34.52279 31740 ft 465 kts 289°
2026-04-25 23:34 39.60617 34.48351 31021 ft 463 kts 289°
2026-04-25 23:34 39.61662 34.44448 30387 ft 462 kts 285°
2026-04-25 23:34 39.62355 34.40391 29886 ft 460 kts 276°
2026-04-25 23:35 39.62242 34.32149 29678 ft 459 kts 263°
2026-04-25 23:35 39.61911 34.28145 28952 ft 459 kts 262°
2026-04-25 23:35 39.61508 34.24043 27728 ft 467 kts 261°
2026-04-25 23:35 39.61072 34.19912 26556 ft 472 kts 261°
2026-04-25 23:36 39.60628 34.15749 25942 ft 465 kts 261°
2026-04-25 23:36 39.60191 34.11607 25357 ft 458 kts 261°
2026-04-25 23:36 39.59776 34.07585 24768 ft 452 kts 262°
2026-04-25 23:36 39.59370 34.03579 24170 ft 447 kts 262°
2026-04-25 23:37 39.59104 33.99612 23401 ft 445 kts 270°
2026-04-25 23:37 39.59559 33.95650 22705 ft 442 kts 283°
2026-04-25 23:37 39.60484 33.91865 21972 ft 439 kts 289°
2026-04-25 23:37 39.61574 33.88263 21282 ft 436 kts 291°
2026-04-25 23:38 39.62760 33.84675 20583 ft 432 kts 292°
2026-04-25 23:38 39.63975 33.81120 19918 ft 428 kts 293°
2026-04-25 23:38 39.65173 33.77637 19224 ft 424 kts 293°
2026-04-25 23:38 39.66351 33.74185 18628 ft 420 kts 292°
2026-04-25 23:39 39.67518 33.70742 18055 ft 414 kts 292°
2026-04-25 23:39 39.68652 33.67364 17503 ft 407 kts 292°
2026-04-25 23:39 39.69764 33.64014 16954 ft 401 kts 292°
2026-04-25 23:39 39.70854 33.60701 16403 ft 395 kts 292°
2026-04-25 23:40 39.71902 33.57491 15877 ft 388 kts 292°
2026-04-25 23:40 39.72680 33.55096 15478 ft 384 kts 292°
2026-04-25 23:40 39.73715 33.51900 14953 ft 378 kts 292°
2026-04-25 23:40 39.74714 33.48809 14449 ft 372 kts 292°
2026-04-25 23:41 39.75708 33.45725 13944 ft 366 kts 292°
2026-04-25 23:41 39.76673 33.42729 13444 ft 361 kts 292°
2026-04-25 23:41 39.77642 33.39722 12943 ft 356 kts 292°
2026-04-25 23:41 39.78585 33.36791 12446 ft 351 kts 292°
2026-04-25 23:42 39.79513 33.33903 11958 ft 347 kts 291°
2026-04-25 23:42 39.80422 33.31066 11468 ft 331 kts 291°
2026-04-25 23:42 39.81290 33.28355 11024 ft 316 kts 291°
2026-04-25 23:42 39.82113 33.25785 10628 ft 301 kts 291°
2026-04-25 23:43 39.82894 33.23348 10317 ft 285 kts 291°
2026-04-25 23:43 39.83634 33.21035 10128 ft 270 kts 291°
2026-04-25 23:43 39.84346 33.18806 9991 ft 268 kts 291°
2026-04-25 23:43 39.85062 33.16556 9650 ft 268 kts 291°
2026-04-25 23:44 39.85770 33.14336 9292 ft 261 kts 291°
2026-04-25 23:44 39.86451 33.12203 8838 ft 257 kts 291°
2026-04-25 23:44 39.87133 33.10066 8329 ft 255 kts 291°
2026-04-25 23:44 39.87811 33.07940 8009 ft 248 kts 291°
2026-04-25 23:45 39.88466 33.05886 7651 ft 248 kts 292°
2026-04-25 23:45 39.89122 33.03824 7362 ft 245 kts 292°
2026-04-25 23:45 39.89767 33.01790 7078 ft 242 kts 292°
2026-04-25 23:45 39.90397 32.99810 6818 ft 232 kts 293°
2026-04-25 23:46 39.91127 32.97988 6585 ft 222 kts 303°
2026-04-25 23:46 39.92001 32.96404 6333 ft 212 kts 307°
2026-04-25 23:46 39.92889 32.94912 6121 ft 204 kts 307°
2026-04-25 23:46 39.93764 32.93491 5919 ft 204 kts 308°
2026-04-25 23:47 39.94655 32.92069 5699 ft 199 kts 308°
2026-04-25 23:47 39.95513 32.90700 5477 ft 191 kts 309°
2026-04-25 23:47 39.96352 32.89360 5306 ft 192 kts 309°
2026-04-25 23:47 39.97393 32.88294 5128 ft 191 kts 344°
2026-04-25 23:48 39.98695 32.88392 4969 ft 192 kts 22°
2026-04-25 23:48 39.99841 32.89287 4803 ft 192 kts 36°
2026-04-25 23:48 40.00893 32.90335 4624 ft 190 kts 37°
2026-04-25 23:48 40.01981 32.91346 4440 ft 189 kts 29°
2026-04-25 23:49 40.03217 32.91824 4274 ft 186 kts
2026-04-25 23:49 40.04508 32.91857 4216 ft 188 kts
2026-04-25 23:49 40.05720 32.92408 4134 ft 187 kts 40°
2026-04-25 23:49 40.06559 32.93667 4097 ft 186 kts 51°
2026-04-25 23:50 40.07496 32.94806 4043 ft 190 kts 30°
2026-04-25 23:50 40.08628 32.95618 4672 ft 179 kts 31°
2026-04-25 23:50 40.09616 32.96476 5421 ft 164 kts 35°
2026-04-25 23:50 40.10550 32.97368 5876 ft 176 kts 36°
2026-04-25 23:51 40.11616 32.98401 6116 ft 205 kts 36°
2026-04-25 23:51 40.12853 32.99604 6309 ft 236 kts 36°
2026-04-25 23:51 40.14203 33.00922 6584 ft 251 kts 36°
2026-04-25 23:51 40.15639 33.02329 6888 ft 257 kts 36°
2026-04-25 23:52 40.17067 33.03735 7188 ft 259 kts 36°
2026-04-25 23:52 40.18504 33.05154 7486 ft 260 kts 36°
2026-04-25 23:52 40.19946 33.06592 7757 ft 262 kts 37°
2026-04-25 23:52 40.21145 33.08413 7950 ft 266 kts 61°
2026-04-25 23:53 40.21612 33.10704 7965 ft 264 kts 89°
2026-04-25 23:53 40.21206 33.13034 7958 ft 263 kts 116°
2026-04-25 23:53 40.20245 33.15052 7953 ft 262 kts 126°
2026-04-25 23:53 40.19199 33.16980 7926 ft 262 kts 126°
2026-04-25 23:54 40.18034 33.18823 7956 ft 262 kts 140°
2026-04-25 23:54 40.16425 33.19906 7963 ft 259 kts 168°
2026-04-25 23:54 40.14667 33.19870 7952 ft 255 kts 197°
2026-04-25 23:54 40.13088 33.18855 7959 ft 253 kts 214°
2026-04-25 23:55 40.11637 33.17561 7953 ft 253 kts 216°
2026-04-25 23:55 40.10189 33.16242 7942 ft 253 kts 216°
2026-04-25 23:55 40.08749 33.14930 7942 ft 248 kts 216°
2026-04-25 23:55 40.07386 33.13694 7939 ft 232 kts 216°
2026-04-25 23:56 40.06052 33.12483 7907 ft 233 kts 216°
2026-04-25 23:56 40.04724 33.11275 7746 ft 232 kts 216°
2026-04-25 23:56 40.03412 33.10078 7602 ft 230 kts 216°
2026-04-25 23:56 40.02101 33.08880 7462 ft 230 kts 216°
2026-04-25 23:57 40.00820 33.07706 7240 ft 221 kts 216°
2026-04-25 23:57 39.99605 33.06591 6999 ft 209 kts 216°
2026-04-25 23:57 39.98420 33.05500 6774 ft 207 kts 216°
2026-04-25 23:57 39.97236 33.04406 6552 ft 207 kts 216°
2026-04-25 23:58 39.96157 33.03224 6344 ft 202 kts 236°
2026-04-25 23:58 39.95752 33.01543 6117 ft 195 kts 269°
2026-04-25 23:58 39.96002 32.99834 5901 ft 196 kts 295°
2026-04-25 23:58 39.96707 32.98304 5729 ft 195 kts 303°
2026-04-25 23:59 39.97454 32.96823 5611 ft 196 kts 302°
2026-04-25 23:59 39.98186 32.95339 5555 ft 193 kts 302°
2026-04-25 23:59 39.98977 32.93929 5559 ft 195 kts 308°
2026-04-25 23:59 39.99842 32.92542 5557 ft 195 kts 309°
2026-04-26 00:00 40.00703 32.91179 5438 ft 197 kts 312°
2026-04-26 00:00 40.01843 32.90271 5246 ft 196 kts 352°
2026-04-26 00:00 40.03177 32.90556 5043 ft 195 kts 26°
2026-04-26 00:00 40.04288 32.91505 4861 ft 186 kts 40°
2026-04-26 00:01 40.05238 32.92510 4637 ft 171 kts 37°
2026-04-26 00:01 40.06168 32.93373 4440 ft 153 kts 35°
2026-04-26 00:01 40.07015 32.94162 4188 ft 148 kts 37°
2026-04-26 00:01 40.07846 32.94958 4015 ft 147 kts 37°
2026-04-26 00:02 40.08673 32.95731 3807 ft 148 kts 35°
2026-04-26 00:02 40.09496 32.96512 3596 ft 145 kts 39°
2026-04-26 00:02 40.10312 32.97271 3391 ft 142 kts 36°
2026-04-26 00:02 40.11097 32.98019 3219 ft 141 kts 36°
2026-04-26 00:03 40.11898 32.98788 3118 ft 131 kts 34°
2026-04-26 00:03 40.12447 32.99309 3122 ft 68 kts 37°
2026-04-26 00:03 40.12780 32.99627 3125 ft 44 kts 36°
2026-04-26 00:03 40.12902 32.99744 3127 ft 11 kts 37°
2026-04-26 00:04 40.12949 32.99799 3128 ft 7 kts 45°
2026-04-26 00:04 40.12974 32.99836 3129 ft 3 kts 48°
2026-04-26 00:04 40.12986 32.99854 3129 ft 2 kts 51°
2026-04-26 00:04 40.12999 32.99878 3129 ft 3 kts 53°
2026-04-26 00:05 40.13017 32.99909 3130 ft 7 kts 54°
2026-04-26 00:05 40.13047 32.99981 3131 ft 7 kts 65°
2026-04-26 00:05 40.13061 33.00022 3132 ft 3 kts 65°
2026-04-26 00:05 40.13073 33.00057 3132 ft 4 kts 66°
2026-04-26 00:06 40.13083 33.00088 3132 ft 3 kts 67°
2026-04-26 00:06 40.13092 33.00115 3133 ft 2 kts 70°
2026-04-26 00:06 40.13092 33.00135 3133 ft 1 kts 99°
2026-04-26 00:06 40.13089 33.00148 3134 ft 2 kts 119°
2026-04-26 00:07 40.13073 33.00167 3135 ft 2 kts 145°
2026-04-26 00:07 40.13057 33.00178 3135 ft 2 kts 163°
2026-04-26 00:07 40.13036 33.00174 3136 ft 3 kts 210°
2026-04-26 00:07 40.13002 33.00142 3135 ft 10 kts 216°
2026-04-26 00:08 40.12911 33.00057 3135 ft 22 kts 216°
2026-04-26 00:08 40.12780 32.99932 3133 ft 22 kts 216°
2026-04-26 00:08 40.12660 32.99818 3133 ft 20 kts 216°
2026-04-26 00:08 40.12553 32.99716 3132 ft 18 kts 217°
2026-04-26 00:09 40.12456 32.99622 3130 ft 17 kts 216°
2026-04-26 00:09 40.12365 32.99536 3129 ft 15 kts 216°
2026-04-26 00:09 40.12282 32.99457 3128 ft 13 kts 217°
2026-04-26 00:09 40.12210 32.99388 3127 ft 12 kts 216°
2026-04-26 00:10 40.12146 32.99327 3126 ft 10 kts 216°
2026-04-26 00:10 40.12090 32.99274 3126 ft 9 kts 216°
2026-04-26 00:10 40.12021 32.99209 3124 ft 15 kts 216°
2026-04-26 00:10 40.11931 32.99123 3124 ft 14 kts 216°
2026-04-26 00:11 40.11865 32.99060 3123 ft 6 kts 216°
2026-04-26 00:11 40.11843 32.99040 3123 ft 3 kts 204°
2026-04-26 00:11 40.11824 32.99038 3123 ft 2 kts 170°
2026-04-26 00:11 40.11807 32.99048 3123 ft 1 kts 149°
2026-04-26 00:12 40.11802 32.99052 3123 ft 1 kts 146°
2026-04-26 00:12 40.11795 32.99061 3123 ft 1 kts 129°
2026-04-26 00:12 40.11781 32.99083 3124 ft 3 kts 128°
2026-04-26 00:12 40.11764 32.99104 3124 ft 4 kts 147°
2026-04-26 00:13 40.11741 32.99119 3125 ft 2 kts 155°
2026-04-26 00:13 40.11729 32.99127 3125 ft 2 kts 143°
2026-04-26 00:13 40.11717 32.99149 3125 ft 2 kts 114°
2026-04-26 00:13 40.11713 32.99163 3125 ft 1 kts 107°
2026-04-26 00:14 40.11711 32.99181 3125 ft 0 kts 86°
2026-04-26 00:14 40.11715 32.99191 3125 ft 2 kts 63°
2026-04-26 00:14 40.11721 32.99206 3126 ft 1 kts 63°
2026-04-26 00:14 40.11728 32.99225 3126 ft 4 kts 62°
2026-04-26 00:15 40.11740 32.99263 3127 ft 3 kts 71°
2026-04-26 00:15 40.11745 32.99282 3127 ft 0 kts 72°
2026-04-26 00:15 40.11747 32.99287 3127 ft 2 kts 71°
2026-04-26 00:15 40.11750 32.99302 3127 ft 1 kts 77°
2026-04-26 00:16 40.11747 32.99323 3128 ft 2 kts 118°
2026-04-26 00:16 40.11736 32.99336 3128 ft 2 kts 153°
2026-04-26 00:16 40.11713 32.99345 3128 ft 7 kts 165°
2026-04-26 00:16 40.11687 32.99353 3128 ft 1 kts 165°
2026-04-26 00:17 40.11686 32.99354 3128 ft 0 kts 165°